Flag for United Kingdom Weather past 2 weeks in Peterborough, England, United Kingdom

Now
64 °F

Partly sunny.


Feels Like: 64 °F
Forecast: 53 / 72 °F
Wind: 6 mph from Northwest

Location: Wittering

Current Time: Jul 5, 2015 at 10:56:54 AM

Latest Report: Jul 5, 2015 at 9:50 AM


Visibility: N/A

Pressure: 30.01 "Hg

Humidity: 60%

Dew point: 50 °F

Location of PeterboroughLocation

Historic Weather in Peterborough — Graph

°F

Peterborough temperature yesterday

Maximum temperature yesterday: 79 °F (at 3:50 PM)
Minimum temperature yesterday: 59 °F (at 2:50 AM)
Average temperature yesterday: 69 °F

Past Weeks' High & Low Weather Summary

 TemperatureHumidityPressure
High93 °F (Jul 1, 12:50 PM)100% (Jun 20, 8:50 PM)30.30 "Hg (Jun 20, 8:50 PM)
Low46 °F (Jun 22, 4:50 AM)26% (Jun 30, 6:50 PM)29.77 "Hg (Jun 22, 9:50 AM)
Average64 °F72%30.04 "Hg
* Reported Jun 20 9:50 AM — Jul 5 9:50 AM, Peterborough, Weather by CustomWeather, © 2015

Note: Actual official high and low records may vary slightly from our data, if they occured in-between our weather recording intervals... More about our weather records

Advertising

Peterborough weather history for previous 24 hours

 ConditionsComfort  
Time TempWeatherWind HumidityBarometerVisibility
9:50 AM
Sun, Jul 5
64 °FPartly sunny.6 mph60%30.01 "HgN/A
8:50 AM66 °FScattered clouds.2 mph49%30.04 "HgN/A
7:50 AM64 °FPassing clouds.5 mph60%30.04 "HgN/A
6:50 AM61 °FScattered clouds.2 mph68%30.07 "HgN/A
5:50 AM59 °FPartly sunny.6 mph72%30.07 "HgN/A
4:50 AM59 °FPassing clouds.6 mph72%30.09 "HgN/A
3:50 AM61 °FPartly cloudy.6 mph68%30.09 "HgN/A
2:50 AM61 °FPassing clouds.5 mph68%30.09 "HgN/A
1:50 AM61 °FPassing clouds.5 mph68%30.09 "HgN/A
12:50 AM63 °FPassing clouds.5 mph68%30.12 "HgN/A
11:50 PM
Sat, Jul 4
61 °FPassing clouds.5 mph72%30.09 "HgN/A
10:50 PM64 °FPassing clouds.7 mph64%30.09 "HgN/A
9:50 PM66 °FScattered clouds.7 mph60%30.09 "HgN/A
8:50 PM70 °FPassing clouds.8 mph57%30.07 "HgN/A
7:50 PM73 °FPassing clouds.15 mph53%30.07 "HgN/A
6:50 PM77 °FPassing clouds.16 mph47%30.07 "HgN/A
5:50 PM77 °FWarm.15 mph51%30.04 "HgN/A
4:50 PM79 °FPassing clouds.16 mph45%30.04 "HgN/A
3:50 PM79 °FPassing clouds.17 mph48%30.04 "HgN/A
2:50 PM77 °FPassing clouds.17 mph51%30.04 "HgN/A
1:50 PM77 °FScattered clouds.16 mph57%30.04 "HgN/A
12:50 PM75 °FPartly sunny.17 mph61%30.01 "HgN/A
11:50 AM75 °FPartly sunny.20 mph65%30.01 "HgN/A
10:50 AM72 °FScattered clouds.16 mph78%30.01 "HgN/A
Weather by CustomWeather, © 2015

See weather overviewHow to use our weather pages